ISS OBJECT XU

Last updated on Sun Apr 12 2026 00:02:13 GMT+0000 (Coordinated Universal Time)

1 66908U 98067XU 26101.42653951 .00296385 00000+0 12018-2 0 9990 2 66908 51.6201 256.9408 0009084 291.2251 68.7781 15.84849063 20347

Satellite not in orbit

ISS OBJECT XU